Timeline UpdatesTrip UpdatesNews PostsPvt PostsTravel TipsAdmin PostsConv PostsFollowed PostsChat RequestsBlog PostsPNR Posts

Disclaimer
Search
 
 
Wed Jul 30, 2014 10:31:41 ISTHomeTrainsΣChainsAtlasPNRForumGalleryNewsFAQTripsMembersLoginFeedback
No Recent News for this Train
Other Trains in the News **new
Latest...
.
Tue Nov 19, 2013 (11:57PM)
⇐ Return Journey: Train# 56323

56324/Mangalore - Coimbatore Fast Passenger (UnReserved)

Nov 01 2013 (5:47AM)
Change Departure Station:
Change Arrival Station:
Post a Train Travel TipPost a Train Travel Tip **new
Post a Comment/Question/Picture/VideoPost a Comment/Question/Picture/Video
Pantry/Catering
???
RSA - Rake Sharing
RSA; with 56319/56320 Nagercoil Coimbatore Fast Passenger; Srivatsa Udupa
Rake/Coach Composition
LOCO=SLR=UR=UR=UR=UR=UR=UR=UR=UR=UR=UR=UR=UR=UR=UR=SLR
Loco
ED WDM 3D/3A or TNP/GOC WDM2
News    PNR    Forum    Time-Table    Availability    Fare Chart    Map    Arr/Dep History    Trips    Gallery    ΣChains    X/O    Timeline    
Travel Time: 9h 34m    40 halts    Distance: 315 km    Avg Speed: 32 km/hr
Type: Passenger
Zone: SR/Southern
Departs @ 10:01
Platform# ???
SMTWTFS
Trikkarippur/TKQ 
Arrives @ 19:35
Platform# ???
SMTWTFS
Coimbatore Main Junction/CBE 

40 halts. 57 intermediate Stations between Trikkarippur and Coimbatore Main Junction

Show ALL intermediate Stations  Show Old Time-Table

#CodeStation NameX/OArrivesAvgDepartsAvgHaltPFDay#KmSpeedElevZoneAddress
1MAQMangalore Central (4)  -08:00-31-91.92114mSRMangalore 575001, Karnataka
2ULLUllal (2)  08:19-08:20-1m--1-85.47726mSRSomeshwar, Karnataka
3MJSManjeshwar (3)  08:28-08:29-1m--1-75.15912mSRManjeshwar, Kerala
4UAAUppala (2)X  08:36-08:37-1m--1-68.25916mSRKasaragod District, Kerala
5KMQKumbala (2)  08:47-08:48-1m--1-58.47323mSRKumbla, Kerala
6KGQKasaragod (3)  08:58-09:00-2m--1-46.22918mSRTel: 04994 220800, Kerala
7KLADKalanad HaltXO  09:06-09:07-1m--1-43.3663mSRKasaragod, Kerala
8KQKKottikkulam (2)X  09:13-09:14-1m--1-36.74225mSRBekal, Kerala
9BFRBekal Fort (2)X  09:21-09:22-1m--1-31.97511mSRPallikere, Kerala
10KZEKanhangad (3)  09:29-09:31-2m--1-23.15115mSRKanhangad, Kerala
11NLENileshwar (2)  09:42-09:43-1m--1-13.84012mSRNileswaram, Kerala
12CHVCharvattur (3)  09:51-09:52-1m--1-8.66414mSRKasaragod district, Kerala
13TKQ»Trikkarippur»  10:00-10:01-1m--10.05313mSRKasargod district, Kerala
14PAYPayyanur (3)X  10:08-10:09-1m--16.2210mSRKannur District, Kerala
15ELMEzhimala  10:17-10:18-1m--19.07615mSRKannur District, Kerala
16PAZPayangadi (2)  10:25-10:26-1m2117.95012mSRKannur District, Kerala
17KPQKannapuram (2)X  10:35-10:36-1m2125.41209mSRKannur District, Kerala
18PPNSPappinisseri (2)  10:39-10:40-1m--131.4198mSRKannur District, Kerala
19VAPMValapattanam (2)  10:45-10:46-1m--132.9258mSRKannur District, Kerala
20CQLChirakkal (2)X  10:51-10:52-1m--135.01027mSRKannur district, Kerala
21CANKannur Main (3)  11:20-11:25-5m3139.86214mSRKannur Tel: 0497 2705555, Kerala
22TLYThalassery (2)X  11:45-11:46-1m--160.5509mSRKannur, Kerala
23MAHEMahe (2)  11:57-11:58-1m--169.84516mSRMahe, Puducherry
24MUKEMukkali  12:03-12:04-1m--173.54418mSRChombala, Kerala
25NAUNadapuram Road  12:09-12:10-1m--177.26518mSRMadappallly, Kerala
26BDJVadakara (2)  12:15-12:16-1m1182.69711mSRCalicut / Station Ph No : 0496-2524254, Kerala
27PYOLPayyoli (2)  12:22-12:23-1m--192.34912mSRPayyoli, Kerala
28QLDKoyilandy (3)  12:38-12:39-1m--1104.64111mSRQuilandi, Kerala
29CLTKozhikode Main (4)X  13:15-13:20-5m31128.92211mSRCalicut Tel: 0495 2701234, Kerala
30KULKallayi Kozhikode South (2)  13:25-13:26-1m--1130.7610mSRCalicut, Kerala
31FKFerok (2)  13:34-13:35-1m--1138.95719mSRFeroke, Kerala
32KNKadalundi (2)  13:40-13:41-1m--1143.6828mSRKozhikode district, Kerala
33VLIVallikunnu (2)  13:45-13:46-1m--1149.13713mSRVallikkunnu, Kerala
34PGIParappangadi (2)  13:54-13:55-1m--1154.05419mSRParappanangadi, Kerala
35TATanur (3)XO  14:04-14:05-1m--1162.13711mSRMalappuram, Kerala
36TIRTirur (3)X  14:18-14:20-2m31170.1579mSRTel: 0494 2422240, Kerala
37TUATirunnavaya (2)  14:29-14:30-1m--1178.74310mSRThirunavaya, Kerala
38KTUKuttippuram (2)X  14:39-14:40-1m--1185.26217mSRKuttippuram, Kerala
39PUMPallippuram  14:49-14:50-1m--1194.5615mSRPalakkad, Kerala
40PTBPattambi (2)XO  14:59-15:00-1m--1203.71221mSRPattambi, Kerala
41SRRShoranur Junction (7)X  16:00-16:15-15m51215.22926mSRShoranur ph.no 0466-2222913, Kerala
42MNURMannanur (2)  16:27-16:28-1m--1221.04733mSRVaniamkulam Mannanur Rd, Kerala
43OTPOttappalam (2)  16:37-16:38-1m--1228.13530mSROttapalam, Kerala
44PLPMPalappuram  16:44-16:45-1m--1231.64042mSRKayarampara-Meetna Rd, Kerala
45LDYLakkidi (2)X  16:51-16:52-1m--1235.65835mSRPalakkad, Kerala
46MNYMankara (2)  17:00-17:01-1m--1243.45665mSRPalakkad, Kerala
47PLLParli (2)  17:09-17:10-1m--1250.82263mSRPalakkad, Kerala
48PGTPalakkad Junction (4)XO  17:35-18:00-25m31259.84784mSRPalghat Tel: 0491 2555231, Kerala
49KJKDKanjikode (2)X  18:17-18:18-1m--1273.0460mSRPalakkad, Kerala
50WRAWalayarX  18:34-18:35-1m--1285.433213mSRPalakkad, Kerala
51ETMDEttimadai (2)  18:51-18:52-1m--1294.145313mSREttimadai, Tamil Nadu
52MDKIMadukaraiX  18:59-19:00-1m--1299.433344mSRCoimbatore, Tamil Nadu
53PTJPodanur Junction (4)  19:18-19:20-2m11309.223400mSRPodanur jtn ph.no. 0422-2410784, Tamil Nadu
54CBE•Coimbatore Main Junction (6)•  19:35----1315.1-416mSRCoimbatore 641001, Tamil Nadu
Scroll to Top
Scroll to Bottom